Weather History for Mitchell, SD

Change the Weather History Date:

Wednesday, December 5, 2012

  Actual Average Record
Temperature  
Mean Temperature 41 °F 24 °F  
Max Temperature 56 °F 33 °F 65 °F (1939)
Min Temperature 25 °F 14 °F -12 °F (2005)
Degree Days  
Heating Degree Days 24 41  
Month to date heating degree days 115 203  
Since 1 July heating degree days 1641 1771  
Cooling Degree Days 0 0  
Month to date cooling degree days 0 0  
Year to date cooling degree days 1236 824  
Moisture  
Dew Point 21 °F    
Average Humidity 47    
Maximum Humidity 69    
Minimum Humidity 29    
Precipitation  
Precipitation 0.00 in 0.03 in 0.92 in (1960)
Month to date precipitation T 0.13  
Year to date precipitation 21.16 21.20  
Snow  
Snow 0.00 in - 6.00 in (1936)
Month to date snowfall 0.0  
Since 1 July snowfall 0.7  
Snow Depth 0.00 in    
Sea Level Pressure  
Sea Level Pressure 29.94 in    
Wind  
Wind Speed 16 mph (SSE)    
Max Wind Speed 26 mph    
Max Gust Speed 33 mph    
Visibility 10 miles    
Events      
T = Trace of Precipitation, MM = Missing Value Source: NWS Daily Summary

Daily Weather History Graph

Daily Weather History Graph

Search for Another Location

Airport:

Trip Planner

Search our weather history database for the weather conditions in past years. The results will help you decide how hot, cold, wet, or windy it might be!

Date:

Astronomy

Dec. 05, 2012 Rise Set
Actual Time 7:50 AM CST 4:55 PM CST
Civil Twilight 7:18 AM CST 5:27 PM CST
Nautical Twilight 6:42 AM CST 6:03 PM CST
Astronomical Twilight 6:07 AM CST 6:38 PM CST
Moon 11:56 PM CST (12/5) 12:06 PM CST (12/5)
Length of Visible Light 10h 09m
Length of Day
9h 04m
Waning Gibbous, 59% of the Moon is Illuminated
Dec 5
Waning Gibbous
Dec 6
Last Quarter
Dec 13
New
Dec 19
First Quarter
Dec 28
Full

Hourly Weather History & Observations

Time (CST) Temp. Windchill Dew Point Humidity Pressure Visibility Wind Dir Wind Speed Gust Speed Precip Events Conditions
12:53 AM 28.0 °F 18.1 °F 18.0 °F 66% 30.28 in 10.0 mi ESE 11.5 mph - N/A   Clear
1:53 AM 27.0 °F 15.2 °F 17.1 °F 66% 30.26 in 10.0 mi SE 15.0 mph - N/A   Unknown
2:53 AM 26.1 °F 12.0 °F 16.0 °F 66% 30.25 in 10.0 mi SE 20.7 mph 26.5 mph N/A   Clear
3:53 AM 25.0 °F 11.7 °F 16.0 °F 69% 30.21 in 10.0 mi SE 17.3 mph - N/A   Clear
4:53 AM 25.0 °F 10.2 °F 16.0 °F 69% 30.18 in 10.0 mi SE 21.9 mph 29.9 mph N/A   Clear
5:53 AM 26.1 °F 12.3 °F 17.1 °F 69% 30.15 in 10.0 mi SE 19.6 mph 27.6 mph N/A   Clear
6:53 AM 28.0 °F 16.1 °F 19.0 °F 69% 30.13 in 10.0 mi SSE 16.1 mph - N/A   Clear
8:53 AM 30.0 °F 17.5 °F 21.0 °F 69% 30.08 in 10.0 mi SSE 19.6 mph 27.6 mph N/A   Clear
9:53 AM 33.1 °F 21.9 °F 21.9 °F 64% 30.05 in 10.0 mi SSE 18.4 mph 25.3 mph N/A   Clear
10:53 AM 37.9 °F 29.2 °F 24.1 °F 57% 30.02 in 10.0 mi SSE 15.0 mph - N/A   Clear
11:53 AM 44.1 °F 36.8 °F 24.1 °F 45% 29.95 in 10.0 mi South 16.1 mph - N/A   Clear
12:53 PM 50.0 °F - 21.9 °F 33% 29.90 in 10.0 mi South 17.3 mph 27.6 mph N/A   Clear
1:53 PM 53.1 °F - 21.9 °F 30% 29.83 in 10.0 mi SSE 17.3 mph - N/A   Clear
2:53 PM 55.0 °F - 23.0 °F 29% 29.79 in 10.0 mi South 21.9 mph 28.8 mph N/A   Clear
3:53 PM 55.0 °F - 23.0 °F 29% 29.77 in 10.0 mi South 13.8 mph - N/A   Clear
4:53 PM 52.0 °F - 23.0 °F 32% 29.75 in 10.0 mi SSE 11.5 mph - N/A   Clear
5:53 PM 51.1 °F - 23.0 °F 33% 29.73 in 10.0 mi SSE 12.7 mph - N/A   Clear
6:53 PM 52.0 °F - 23.0 °F 32% 29.72 in 10.0 mi SSE 11.5 mph - N/A   Clear
7:53 PM 54.0 °F - 23.0 °F 30% 29.71 in 10.0 mi South 13.8 mph - N/A   Clear
8:53 PM 55.0 °F - 23.0 °F 29% 29.70 in 10.0 mi South 13.8 mph - N/A   Clear
9:53 PM 55.0 °F - 23.0 °F 29% 29.69 in 10.0 mi SSW 15.0 mph 21.9 mph N/A   Clear
10:53 PM 54.0 °F - 25.0 °F 33% 29.70 in 10.0 mi SW 10.4 mph - N/A   Clear
11:53 PM 54.0 °F - 27.0 °F 35% 29.72 in 10.0 mi West 10.4 mph - N/A   Overcast